Tracking 30685 objects as of 17-Jun-2025
HD Live streaming from Space Station
objects crossing your sky now

NOAA 16 DEB

Track NOAA 16 DEB now!
10-day predictions


NORAD ID: 41211
Int'l Code: 2000-055DQ
Perigee: 815.2 km
Apogee: 855.8 km
Inclination: 98.7 °
Period: 101.5 minutes
Semi major axis: 7206 km
RCS: Unknown
Launch date: September 21, 2000
Source: United States (US)
Launch site: AIR FORCE WESTERN TEST RANGE (AFWTR)

Note: This is SATELLITE DEBRIS
Your satellite tracking list
Your tracking list is empty




NASA's NSSDC Master Catalog

Two Line Element Set (TLE):
1 41211U 00055DQ  25168.11563212  .00002216  00000-0  10758-2 0  9996
2 41211  98.6958 219.5303 0028175  87.9158 272.5244 14.19116601490481
Source of the keplerian elements: AFSPC